KD0SBN Weather Reports


Display with metric or nautical units.
time (UTC)temp
F
wind
direction
speed
MPH
gust
MPH
rain 1hr
in
rain 24hr
in
rain mn
in
humidity
%
barometer
mb
20260505111619 48 354 1.0 1.0 0.00 0.00 0.00 69 1010.6
20260505111116 47 340 0.0 1.0 0.00 0.00 0.00 71 1010.6
20260505110612 48 342 0.0 0.0 0.00 0.00 0.00 70 1010.8
20260505110109 49 348 0.0 1.0 0.00 0.00 0.00 68 1010.8
20260505102045 48 69 0.0 1.0 0.00 0.00 0.00 72 1011.1
20260505101543 49 49 1.0 2.0 0.00 0.00 0.00 71 1011.3
20260505101039 50 16 0.0 2.0 0.00 0.00 0.00 69 1011.3
20260505100536 50 353 2.0 3.0 0.00 0.00 0.00 68 1011.1
20260505100033 49 339 1.0 2.0 0.00 0.00 0.00 70 1010.8
20260505095529 49 334 1.0 2.0 0.00 0.00 0.00 70 1011.1
20260505095026 50 341 1.0 2.0 0.00 0.00 0.00 69 1010.9
20260505094522 50 339 0.0 1.0 0.00 0.00 0.00 69 1011.1
20260505094019 50 335 0.0 1.0 0.00 0.00 0.00 69 1011.1
20260505093515 50 331 0.0 2.0 0.00 0.00 0.00 69 1011.2
20260505093013 50 323 1.0 1.0 0.00 0.00 0.00 69 1011.1
20260505092510 50 318 1.0 2.0 0.00 0.00 0.00 69 1010.9
20260505092008 50 312 0.0 2.0 0.00 0.00 0.00 70 1010.8
20260505091505 50 330 1.0 1.0 0.00 0.00 0.00 70 1010.8
20260505091003 50 326 1.0 1.0 0.00 0.00 0.00 70 1010.9
20260505090501 51 310 0.0 0.0 0.00 0.00 0.00 69 1010.9
20260505085958 51 322 0.0 0.0 0.00 0.00 0.00 68 1010.9
20260505085455 51 314 0.0 1.0 0.00 0.00 0.00 68 1010.9
20260505084954 51 314 0.0 1.0 0.00 0.00 0.00 67 1010.9
20260505084452 52 341 1.0 3.0 0.00 0.00 0.00 66 1010.9
20260505083949 52 4 3.0 3.0 0.00 0.00 0.00 65 1011.1
20260505083446 53 5 1.0 3.0 0.00 0.00 0.00 65 1011.1
20260505082942 53 344 4.0 6.0 0.00 0.00 0.00 64 1010.9
20260505082438 53 358 2.0 6.0 0.00 0.00 0.00 64 1010.8
20260505081936 53 6 4.0 7.0 0.00 0.00 0.00 64 1010.9
20260505081432 52 10 4.0 6.0 0.00 0.00 0.00 66 1011.1
20260505080928 53 10 1.0 3.0 0.00 0.00 0.00 67 1011.1
20260505080425 53 0 2.0 4.0 0.00 0.00 0.00 67 1011.1
20260505075920 53 303 3.0 3.0 0.00 0.00 0.00 66 1010.9
20260505075417 53 1 4.0 4.0 0.00 0.00 0.00 66 1011.1
20260505074915 53 349 4.0 6.0 0.00 0.00 0.00 66 1010.8
20260505074412 53 354 4.0 4.0 0.00 0.00 0.00 66 1011.1
20260505073909 53 329 2.0 3.0 0.00 0.00 0.00 66 1010.8
20260505073407 53 352 2.0 3.0 0.00 0.00 0.00 66 1010.8
20260505072904 53 311 2.0 3.0 0.00 0.00 0.00 66 1011.1
20260505072359 54 319 1.0 2.0 0.00 0.00 0.00 66 1010.9
20260505071856 54 1 2.0 4.0 0.00 0.00 0.00 65 1010.6
20260505071352 54 359 2.0 7.0 0.00 0.00 0.00 64 1010.5
20260505070851 55 340 3.0 6.0 0.00 0.00 0.00 64 1010.5
20260505070347 55 289 3.0 7.0 0.00 0.00 0.00 63 1010.6
20260505065842 55 348 4.0 8.0 0.00 0.00 0.00 63 1010.2
20260505065339 55 345 5.0 9.0 0.00 0.00 0.00 62 1010.1
20260505064836 55 347 6.0 13.0 0.00 0.00 0.00 62 1010.0
20260505064333 56 347 6.0 11.0 0.00 0.00 0.00 61 1010.1
20260505063832 56 350 6.0 7.0 0.00 0.00 0.00 60 1010.6
20260505063327 56 358 6.0 10.0 0.00 0.00 0.00 60 1010.5
20260505062824 56 356 7.0 9.0 0.00 0.00 0.00 60 1010.6
20260505062322 56 350 5.0 8.0 0.00 0.00 0.00 60 1010.4
20260505061818 56 5 5.0 8.0 0.00 0.00 0.00 60 1010.5
20260505061316 56 309 3.0 8.0 0.00 0.00 0.00 60 1010.4
20260505060813 56 338 3.0 6.0 0.00 0.00 0.00 59 1010.5
20260505060310 57 350 5.0 8.0 0.00 0.00 0.00 58 1010.7
20260505055806 57 351 8.0 10.0 0.00 0.00 0.00 58 1010.8
20260505055303 57 302 7.0 9.0 0.00 0.00 0.00 58 1010.5
20260505054800 57 350 8.0 11.0 0.00 0.00 0.00 58 1010.7
20260505054257 57 359 9.0 13.0 0.00 0.00 0.00 57 1010.6
20260505053755 57 356 5.0 8.0 0.00 0.00 0.00 59 1010.4
20260505053252 57 329 6.0 8.0 0.00 0.00 0.00 59 1010.4
20260505052749 56 358 5.0 8.0 0.00 0.00 0.00 59 1010.5
20260505052246 57 302 5.0 9.0 0.00 0.00 0.00 59 1010.4
20260505051742 57 344 5.0 7.0 0.00 0.00 0.00 59 1010.4
20260505051241 57 313 5.0 7.0 0.00 0.00 0.00 59 1010.2
20260505050738 57 338 3.0 9.0 0.00 0.00 0.00 59 1010.5
20260505050237 57 31 4.0 9.0 0.00 0.00 0.00 58 1010.5
20260505041706 58 309 3.0 4.0 0.00 0.00 0.00 59 1010.2
20260505041203 57 354 4.0 7.0 0.00 0.00 0.00 58 1010.2
20260505040700 58 348 8.0 11.0 0.00 0.00 0.00 59 1010.2
20260505040158 58 337 10.0 13.0 0.00 0.00 0.00 59 1010.1
20260505035654 59 324 6.0 11.0 0.00 0.00 0.00 53 1010.2
20260505035150 59 330 6.0 14.0 0.00 0.00 0.00 51 1009.9
20260505034647 59 340 9.0 14.0 0.00 0.00 0.00 50 1009.5
20260505034144 60 321 6.0 13.0 0.00 0.00 0.00 50 1009.5
20260505033640 60 331 8.0 11.0 0.00 0.00 0.00 50 1009.2
20260505033139 60 332 7.0 11.0 0.00 0.00 0.00 50 1009.1
20260505032636 60 346 8.0 13.0 0.00 0.00 0.00 51 1009.0
20260505032133 60 320 5.0 9.0 0.00 0.00 0.00 52 1009.0
20260505031630 60 333 6.0 13.0 0.00 0.00 0.00 52 1008.8
20260505031126 60 296 7.0 11.0 0.00 0.00 0.00 52 1008.7
20260505030623 60 298 4.0 9.0 0.00 0.00 0.00 52 1008.7
20260505030119 60 323 5.0 17.0 0.00 0.00 0.00 50 1008.4
20260505025615 60 329 5.0 15.0 0.00 0.00 0.00 50 1008.4
20260505025114 60 266 6.0 8.0 0.00 0.00 0.00 52 1008.3
20260505024611 61 349 12.0 22.0 0.00 0.00 0.00 49 1008.4
20260505024108 61 4 15.0 22.0 0.00 0.00 0.00 49 1008.0
20260505023605 61 320 10.0 14.0 0.00 0.00 0.00 48 1007.9
20260505023103 61 344 11.0 16.0 0.00 0.00 0.00 48 1007.7
20260505022600 62 7 10.0 13.0 0.00 0.00 0.00 47 1007.3
20260505022057 62 354 10.0 16.0 0.00 0.00 0.00 46 1007.4
20260505021553 62 11 9.0 14.0 0.00 0.00 0.00 44 1007.6
20260505021050 62 0 9.0 13.0 0.00 0.00 0.00 44 1007.7
20260505020550 63 296 10.0 15.0 0.00 0.00 0.00 43 1007.7
20260505020048 63 334 6.0 14.0 0.00 0.00 0.00 42 1007.6
20260505015544 64 336 9.0 18.0 0.00 0.00 0.00 41 1007.3
20260505015041 65 313 11.0 13.0 0.00 0.00 0.00 40 1007.1
20260505014538 66 346 9.0 26.0 0.00 0.00 0.00 38 1007.1
20260505014035 67 345 11.0 18.0 0.00 0.00 0.00 37 1007.0
20260505013532 66 333 8.0 14.0 0.00 0.00 0.00 36 1006.6
20260505013030 66 310 4.0 13.0 0.00 0.00 0.00 37 1006.7
20260505012528 67 277 6.0 8.0 0.00 0.00 0.00 37 1006.6
20260505012025 67 1 11.0 15.0 0.00 0.00 0.00 37 1006.4
20260505011520 67 355 9.0 16.0 0.00 0.00 0.00 37 1006.2
20260505011017 67 10 6.0 9.0 0.00 0.00 0.00 37 1005.9
20260505010512 67 288 8.0 19.0 0.00 0.00 0.00 36 1005.6
20260505010009 68 292 10.0 16.0 0.00 0.00 0.00 35 1005.7
20260505005506 68 15 6.0 13.0 0.00 0.00 0.00 35 1005.9
20260505005004 69 352 5.0 10.0 0.00 0.00 0.00 34 1005.8
20260505004501 69 351 9.0 14.0 0.00 0.00 0.00 33 1005.9
20260505003957 70 329 7.0 16.0 0.00 0.00 0.00 32 1005.6
20260505003454 70 23 7.0 14.0 0.00 0.00 0.00 32 1005.5
20260505002950 70 8 7.0 16.0 0.00 0.00 0.00 32 1005.5
20260505002446 70 11 8.0 15.0 0.00 0.00 0.00 31 1005.5
20260505001945 71 355 10.0 16.0 0.00 0.00 0.00 31 1005.5
20260505001442 71 15 12.0 17.0 0.00 0.00 0.00 30 1005.3
20260505000939 71 336 10.0 11.0 0.00 0.00 0.00 30 1005.6
20260505000437 71 6 10.0 15.0 0.00 0.00 0.00 30 1005.6
20260504235934 72 317 4.0 9.0 0.00 0.00 0.00 30 1005.3
20260504235431 72 325 2.0 8.0 0.00 0.00 0.00 30 1005.3
20260504234927 72 7 4.0 6.0 0.00 0.00 0.00 29 1005.6
20260504234425 72 356 10.0 15.0 0.00 0.00 0.00 30 1005.5
20260504233921 72 18 7.0 13.0 0.00 0.00 0.00 29 1005.5
20260504233417 73 281 7.0 10.0 0.00 0.00 0.00 29 1005.3
20260504232914 73 291 4.0 11.0 0.00 0.00 0.00 29 1005.6
20260504232411 73 310 5.0 8.0 0.00 0.00 0.00 29 1005.2
20260504231908 73 325 4.0 6.0 0.00 0.00 0.00 30 1005.2
20260504231404 74 276 6.0 10.0 0.00 0.00 0.00 29 1005.2
20260504230901 77 274 5.0 9.0 0.00 0.00 0.00 25 1005.2
20260504230358 76 282 11.0 18.0 0.00 0.00 0.00 22 1005.2
20260504225856 76 284 9.0 17.0 0.00 0.00 0.00 22 1004.9
20260504225353 77 263 14.0 17.0 0.00 0.00 0.00 22 1004.9
20260504224850 77 276 13.0 23.0 0.00 0.00 0.00 23 1004.9
20260504224347 76 275 12.0 22.0 0.00 0.00 0.00 23 1005.0
20260504223844 77 294 13.0 19.0 0.00 0.00 0.00 24 1004.8
20260504223339 77 316 14.0 19.0 0.00 0.00 0.00 24 1004.9
20260504222836 77 277 8.0 17.0 0.00 0.00 0.00 23 1004.9
20260504222333 77 249 15.0 19.0 0.00 0.00 0.00 23 1004.6
20260504221831 77 294 9.0 17.0 0.00 0.00 0.00 23 1005.0
20260504221327 78 234 13.0 19.0 0.00 0.00 0.00 23 1005.0
20260504220825 77 265 9.0 16.0 0.00 0.00 0.00 23 1005.2
20260504220321 77 277 9.0 11.0 0.00 0.00 0.00 23 1005.0
20260504215819 78 270 15.0 18.0 0.00 0.00 0.00 23 1005.2
20260504215315 77 265 11.0 15.0 0.00 0.00 0.00 24 1005.3
20260504214811 77 303 9.0 15.0 0.00 0.00 0.00 24 1005.3
20260504214308 77 266 11.0 15.0 0.00 0.00 0.00 23 1005.1
20260504213805 77 285 17.0 21.0 0.00 0.00 0.00 23 1005.3
20260504213301 77 237 13.0 21.0 0.00 0.00 0.00 23 1005.6
20260504212758 77 257 17.0 22.0 0.00 0.00 0.00 24 1005.8
20260504212254 77 265 15.0 21.0 0.00 0.00 0.00 25 1005.9
20260504211752 78 286 14.0 23.0 0.00 0.00 0.00 24 1005.9
20260504211248 77 228 13.0 22.0 0.00 0.00 0.00 25 1005.8
20260504210746 77 283 14.0 18.0 0.00 0.00 0.00 24 1005.9
20260504210243 77 296 15.0 23.0 0.00 0.00 0.00 25 1005.9
20260504205739 78 256 18.0 26.0 0.00 0.00 0.00 24 1006.0
20260504205238 77 253 17.0 25.0 0.00 0.00 0.00 24 1006.2
20260504204735 77 274 22.0 27.0 0.00 0.00 0.00 24 1006.3
20260504204233 77 276 15.0 30.0 0.00 0.00 0.00 25 1006.0
20260504203733 78 276 15.0 21.0 0.00 0.00 0.00 25 1006.2
20260504203229 79 239 17.0 23.0 0.00 0.00 0.00 25 1006.2
20260504202729 79 268 16.0 21.0 0.00 0.00 0.00 25 1006.0
20260504202227 78 284 11.0 22.0 0.00 0.00 0.00 23 1006.3
20260504201724 78 276 13.0 27.0 0.00 0.00 0.00 23 1006.4
20260504201221 78 295 18.0 24.0 0.00 0.00 0.00 24 1006.3
20260504200719 78 287 18.0 25.0 0.00 0.00 0.00 25 1006.4
20260504200214 78 270 8.0 21.0 0.00 0.00 0.00 24 1006.2
20260504195711 79 300 10.0 14.0 0.00 0.00 0.00 22 1006.2
20260504195207 79 296 16.0 21.0 0.00 0.00 0.00 21 1006.3
20260504194704 79 294 15.0 23.0 0.00 0.00 0.00 21 1006.2
20260504194200 80 278 11.0 21.0 0.00 0.00 0.00 21 1006.3
20260504193657 80 350 4.0 9.0 0.00 0.00 0.00 20 1006.3
20260504193154 79 257 14.0 23.0 0.00 0.00 0.00 21 1006.3
20260504192652 78 270 10.0 13.0 0.00 0.00 0.00 21 1006.5
20260504192150 76 292 14.0 17.0 0.00 0.00 0.00 21 1006.4
20260504191648 78 267 5.0 11.0 0.00 0.00 0.00 21 1006.6
20260504191144 78 252 5.0 11.0 0.00 0.00 0.00 22 1006.6
20260504190640 79 280 9.0 16.0 0.00 0.00 0.00 21 1006.4
20260504190137 80 274 3.0 4.0 0.00 0.00 0.00 19 1006.7
20260504185633 78 13 2.0 3.0 0.00 0.00 0.00 20 1006.6
20260504185130 80 287 3.0 11.0 0.00 0.00 0.00 19 1007.2
20260504184626 78 299 5.0 7.0 0.00 0.00 0.00 20 1006.7
20260504184121 77 279 8.0 9.0 0.00 0.00 0.00 20 1007.0
20260504183619 79 261 10.0 16.0 0.00 0.00 0.00 21 1007.2
20260504183116 80 265 3.0 10.0 0.00 0.00 0.00 21 1007.2
20260504182614 76 255 4.0 6.0 0.00 0.00 0.00 23 1006.9
20260504182111 77 268 10.0 19.0 0.00 0.00 0.00 22 1007.2
20260504181608 78 285 11.0 18.0 0.00 0.00 0.00 22 1007.1
20260504181106 78 288 4.0 9.0 0.00 0.00 0.00 21 1007.1
20260504180605 77 220 8.0 15.0 0.00 0.00 0.00 23 1007.4
20260504180103 77 236 14.0 19.0 0.00 0.00 0.00 23 1007.2
20260504175600 77 206 12.0 18.0 0.00 0.00 0.00 23 1007.3
20260504175057 77 269 12.0 15.0 0.00 0.00 0.00 23 1007.4
20260504174555 78 330 2.0 7.0 0.00 0.00 0.00 23 1007.8
20260504174051 77 285 9.0 17.0 0.00 0.00 0.00 24 1007.9
20260504173548 77 288 7.0 17.0 0.00 0.00 0.00 24 1007.9
20260504173046 76 276 8.0 15.0 0.00 0.00 0.00 26 1007.8
20260504172541 77 260 6.0 13.0 0.00 0.00 0.00 26 1007.9
20260504172038 76 234 12.0 15.0 0.00 0.00 0.00 26 1008.0
20260504171535 75 253 7.0 15.0 0.00 0.00 0.00 27 1008.3
20260504171032 76 266 9.0 15.0 0.00 0.00 0.00 26 1008.3
20260504170528 75 236 13.0 16.0 0.00 0.00 0.00 26 1008.6
20260504150912 70 302 23.0 30.0 0.00 0.00 0.00 30 1009.4
20260504150409 70 279 22.0 27.0 0.00 0.00 0.00 31 1009.3
20260504140835 65 292 15.0 23.0 0.00 0.00 0.00 36 1009.3
20260504140331 66 277 16.0 21.0 0.00 0.00 0.00 36 1009.3
20260504130800 63 280 13.0 15.0 0.00 0.00 0.00 37 1009.5
20260504130256 63 271 10.0 17.0 0.00 0.00 0.00 37 1009.5
20260504120220 61 258 13.0 17.0 0.00 0.00 0.00 34 1009.7